Time,TemperatureF,DewpointF,PressureIn,WindDirection,WindDirectionDegrees,WindSpeedMPH,WindSpeedGustMPH,Humidity,HourlyPrecipIn,Conditions,Clouds,dailyrainin,SoftwareType,DateUTC
2013-05-07 00:01:00,62.2,43.9,29.67,North,0,0.0,0.0,51,0.00,,SKC,0.00,VWS V12.07,2013-05-07 04:01:00,
2013-05-07 00:06:00,61.8,43.5,29.66,North,0,0.0,0.0,51,0.00,,SKC,0.00,VWS V12.07,2013-05-07 04:06:00,
2013-05-07 00:11:00,61.8,43.5,29.66,North,0,0.0,0.0,51,0.00,,SKC,0.00,VWS V12.07,2013-05-07 04:11:00,
2013-05-07 00:16:00,61.7,43.4,29.66,North,0,0.0,0.0,51,0.00,,SKC,0.00,VWS V12.07,2013-05-07 04:16:00,
2013-05-07 00:21:00,61.7,43.4,29.66,North,0,0.0,0.0,51,0.00,,SKC,0.00,VWS V12.07,2013-05-07 04:21:00,
2013-05-07 00:26:00,61.5,43.2,29.66,North,0,0.0,0.0,51,0.00,,SKC,0.00,VWS V12.07,2013-05-07 04:26:00,
2013-05-07 00:31:00,61.5,43.2,29.66,North,0,0.0,0.0,51,0.00,,SKC,0.00,VWS V12.07,2013-05-07 04:31:00,
2013-05-07 00:36:00,61.5,43.2,29.65,North,0,0.0,0.0,51,0.00,,SKC,0.00,VWS V12.07,2013-05-07 04:36:00,
2013-05-07 00:41:00,61.5,43.2,29.66,North,0,0.0,0.0,51,0.00,,SKC,0.00,VWS V12.07,2013-05-07 04:41:00,
2013-05-07 00:46:00,61.3,43.0,29.66,North,0,0.0,0.0,51,0.00,,SKC,0.00,VWS V12.07,2013-05-07 04:46:00,
2013-05-07 00:51:00,61.3,43.0,29.66,North,0,0.0,0.0,51,0.00,,SKC,0.00,VWS V12.07,2013-05-07 04:51:00,
2013-05-07 00:56:00,61.1,42.8,29.65,North,0,0.0,0.0,51,0.00,,SKC,0.00,VWS V12.07,2013-05-07 04:56:00,
2013-05-07 01:01:00,61.1,42.8,29.66,North,0,0.0,0.0,51,0.00,,SKC,0.00,VWS V12.07,2013-05-07 05:01:00,
2013-05-07 01:06:00,61.1,42.8,29.66,North,0,0.0,0.0,51,0.00,,SKC,0.00,VWS V12.07,2013-05-07 05:06:00,
2013-05-07 01:11:00,60.9,42.2,29.66,North,0,0.0,0.0,50,0.00,,SKC,0.00,VWS V12.07,2013-05-07 05:11:00,
2013-05-07 01:16:00,60.8,42.1,29.66,North,0,0.0,0.0,50,0.00,,SKC,0.00,VWS V12.07,2013-05-07 05:16:00,
2013-05-07 01:21:00,60.6,41.9,29.66,North,0,0.0,0.0,50,0.00,,SKC,0.00,VWS V12.07,2013-05-07 05:21:00,
2013-05-07 01:26:00,60.6,41.9,29.65,North,0,0.0,0.0,50,0.00,,SKC,0.00,VWS V12.07,2013-05-07 05:26:00,
2013-05-07 01:31:00,60.4,41.7,29.66,North,0,0.0,0.0,50,0.00,,SKC,0.00,VWS V12.07,2013-05-07 05:31:00,
2013-05-07 01:36:00,60.4,42.2,29.66,North,0,0.0,0.0,51,0.00,,SKC,0.00,VWS V12.07,2013-05-07 05:36:00,
2013-05-07 01:41:00,60.2,42.0,29.65,North,0,0.0,0.0,51,0.00,,SKC,0.00,VWS V12.07,2013-05-07 05:41:00,
2013-05-07 01:46:00,60.0,41.8,29.65,North,0,0.0,0.0,51,0.00,,SKC,0.00,VWS V12.07,2013-05-07 05:46:00,
2013-05-07 01:51:00,60.0,41.8,29.65,North,0,0.0,0.0,51,0.00,,SKC,0.00,VWS V12.07,2013-05-07 05:51:00,
2013-05-07 01:56:00,59.9,42.2,29.65,North,0,0.0,0.0,52,0.00,,SKC,0.00,VWS V12.07,2013-05-07 05:56:00,
2013-05-07 02:01:00,59.7,41.6,29.65,North,0,0.0,0.0,51,0.00,,SKC,0.00,VWS V12.07,2013-05-07 06:01:00,
2013-05-07 02:06:00,59.5,41.4,29.65,North,0,0.0,0.0,51,0.00,,SKC,0.00,VWS V12.07,2013-05-07 06:06:00,
2013-05-07 02:11:00,59.5,41.4,29.65,North,0,0.0,0.0,51,0.00,,SKC,0.00,VWS V12.07,2013-05-07 06:11:00,
2013-05-07 02:16:00,59.3,41.2,29.65,North,0,0.0,0.0,51,0.00,,SKC,0.00,VWS V12.07,2013-05-07 06:16:00,
2013-05-07 02:21:00,59.3,41.2,29.64,North,0,0.0,0.0,51,0.00,,SKC,0.00,VWS V12.07,2013-05-07 06:21:00,
2013-05-07 02:26:00,59.1,41.5,29.64,North,0,0.0,0.0,52,0.00,,SKC,0.00,VWS V12.07,2013-05-07 06:26:00,
2013-05-07 02:31:00,58.8,41.2,29.64,North,0,0.0,0.0,52,0.00,,SKC,0.00,VWS V12.07,2013-05-07 06:31:00,
2013-05-07 02:36:00,58.8,41.2,29.64,North,0,0.0,0.0,52,0.00,,SKC,0.00,VWS V12.07,2013-05-07 06:36:00,
2013-05-07 02:41:00,58.8,41.7,29.64,North,0,0.0,0.0,53,0.00,,SKC,0.00,VWS V12.07,2013-05-07 06:41:00,
2013-05-07 02:46:00,58.8,41.7,29.64,North,0,0.0,0.0,53,0.00,,SKC,0.00,VWS V12.07,2013-05-07 06:46:00,
2013-05-07 02:51:00,58.6,41.5,29.64,North,0,0.0,0.0,53,0.00,,SKC,0.00,VWS V12.07,2013-05-07 06:51:00,
2013-05-07 02:56:00,58.4,41.8,29.64,North,0,0.0,0.0,54,0.00,,SKC,0.00,VWS V12.07,2013-05-07 06:56:00,
2013-05-07 03:01:00,58.2,41.7,29.64,North,0,0.0,0.0,54,0.00,,SKC,0.00,VWS V12.07,2013-05-07 07:01:00,
2013-05-07 03:06:00,58.1,41.6,29.64,North,0,0.0,0.0,54,0.00,,SKC,0.00,VWS V12.07,2013-05-07 07:06:00,
2013-05-07 03:11:00,58.1,41.6,29.64,North,0,0.0,0.0,54,0.00,,SKC,0.00,VWS V12.07,2013-05-07 07:11:00,
2013-05-07 03:16:00,57.9,41.4,29.64,North,0,0.0,0.0,54,0.00,,SKC,0.00,VWS V12.07,2013-05-07 07:16:00,
2013-05-07 03:21:00,57.9,41.8,29.64,North,0,0.0,0.0,55,0.00,,SKC,0.00,VWS V12.07,2013-05-07 07:21:00,
2013-05-07 03:26:00,57.7,41.7,29.64,North,0,0.0,0.0,55,0.00,,SKC,0.00,VWS V12.07,2013-05-07 07:26:00,
2013-05-07 03:31:00,57.5,41.9,29.64,North,0,0.0,0.0,56,0.00,,SKC,0.00,VWS V12.07,2013-05-07 07:31:00,
2013-05-07 03:36:00,57.3,41.8,29.64,North,0,0.0,0.0,56,0.00,,SKC,0.00,VWS V12.07,2013-05-07 07:36:00,
2013-05-07 03:41:00,57.3,41.8,29.64,North,0,0.0,0.0,56,0.00,,SKC,0.00,VWS V12.07,2013-05-07 07:41:00,
2013-05-07 03:46:00,57.0,41.9,29.64,North,0,0.0,0.0,57,0.00,,SKC,0.00,VWS V12.07,2013-05-07 07:46:00,
2013-05-07 03:51:00,57.0,41.5,29.64,North,0,0.0,0.0,56,0.00,,SKC,0.00,VWS V12.07,2013-05-07 07:51:00,
2013-05-07 03:56:00,57.0,41.5,29.64,North,0,0.0,0.0,56,0.00,,SKC,0.00,VWS V12.07,2013-05-07 07:56:00,
2013-05-07 04:01:00,56.8,41.3,29.64,North,0,0.0,0.0,56,0.00,,SKC,0.00,VWS V12.07,2013-05-07 08:01:00,
2013-05-07 04:06:00,56.8,41.3,29.64,North,0,0.0,0.0,56,0.00,,SKC,0.00,VWS V12.07,2013-05-07 08:06:00,
2013-05-07 04:11:00,56.6,41.6,29.64,North,0,0.0,0.0,57,0.00,,SKC,0.00,VWS V12.07,2013-05-07 08:11:00,
2013-05-07 04:16:00,56.4,41.8,29.64,North,0,0.0,0.0,58,0.00,,SKC,0.00,VWS V12.07,2013-05-07 08:16:00,
2013-05-07 04:21:00,56.3,41.7,29.65,North,0,0.0,0.0,58,0.00,,SKC,0.00,VWS V12.07,2013-05-07 08:21:00,
2013-05-07 04:26:00,56.1,42.0,29.65,North,0,0.0,0.0,59,0.00,,SKC,0.00,VWS V12.07,2013-05-07 08:26:00,
2013-05-07 04:31:00,55.7,41.6,29.64,North,0,0.0,0.0,59,0.00,,SKC,0.00,VWS V12.07,2013-05-07 08:31:00,
2013-05-07 04:36:00,55.7,41.6,29.65,North,0,0.0,0.0,59,0.00,,SKC,0.00,VWS V12.07,2013-05-07 08:36:00,
2013-05-07 04:41:00,55.5,41.4,29.65,North,0,0.0,0.0,59,0.00,,SKC,0.00,VWS V12.07,2013-05-07 08:41:00,
2013-05-07 04:46:00,55.5,41.9,29.65,North,0,0.0,0.0,60,0.00,,SKC,0.00,VWS V12.07,2013-05-07 08:46:00,
2013-05-07 04:51:00,55.4,41.8,29.65,North,0,0.0,0.0,60,0.00,,SKC,0.00,VWS V12.07,2013-05-07 08:51:00,
2013-05-07 04:56:00,55.2,41.6,29.65,North,0,0.0,0.0,60,0.00,,SKC,0.00,VWS V12.07,2013-05-07 08:56:00,
2013-05-07 05:01:00,55.2,41.6,29.64,North,0,0.0,0.0,60,0.00,,SKC,0.00,VWS V12.07,2013-05-07 09:01:00,
2013-05-07 05:06:00,55.2,41.6,29.65,North,0,0.0,0.0,60,0.00,,SKC,0.00,VWS V12.07,2013-05-07 09:06:00,
2013-05-07 05:11:00,55.0,41.4,29.65,North,0,0.0,0.0,60,0.00,,SKC,0.00,VWS V12.07,2013-05-07 09:11:00,
2013-05-07 05:16:00,55.0,41.4,29.65,North,0,0.0,0.0,60,0.00,,SKC,0.00,VWS V12.07,2013-05-07 09:16:00,
2013-05-07 05:21:00,55.0,41.4,29.65,North,0,0.0,0.0,60,0.00,,SKC,0.00,VWS V12.07,2013-05-07 09:21:00,
2013-05-07 05:26:00,54.8,41.6,29.65,North,0,0.0,0.0,61,0.00,,SKC,0.00,VWS V12.07,2013-05-07 09:26:00,
2013-05-07 05:31:00,54.6,41.4,29.65,North,0,0.0,0.0,61,0.00,,SKC,0.00,VWS V12.07,2013-05-07 09:31:00,
2013-05-07 05:36:00,54.6,41.9,29.65,North,0,0.0,0.0,62,0.00,,SKC,0.00,VWS V12.07,2013-05-07 09:36:00,
2013-05-07 05:41:00,54.6,42.3,29.65,North,0,0.0,0.0,63,0.00,,SKC,0.00,VWS V12.07,2013-05-07 09:41:00,
2013-05-07 05:46:00,54.6,42.7,29.66,North,0,0.0,0.0,64,0.00,,SKC,0.00,VWS V12.07,2013-05-07 09:46:00,
2013-05-07 05:51:00,54.5,42.6,29.66,North,0,0.0,0.0,64,0.00,,SKC,0.00,VWS V12.07,2013-05-07 09:51:00,
2013-05-07 05:57:00,54.3,42.4,29.66,North,0,0.0,0.0,64,0.00,,SKC,0.00,VWS V12.07,2013-05-07 09:57:00,
2013-05-07 06:02:00,54.1,42.2,29.66,North,0,0.0,0.0,64,0.00,,SKC,0.00,VWS V12.07,2013-05-07 10:02:00,
2013-05-07 06:07:00,53.9,42.0,29.66,North,0,0.0,0.0,64,0.00,,SKC,0.00,VWS V12.07,2013-05-07 10:07:00,
2013-05-07 06:12:00,53.9,42.0,29.66,North,0,0.0,0.0,64,0.00,,SKC,0.00,VWS V12.07,2013-05-07 10:12:00,
2013-05-07 06:17:00,53.7,41.8,29.66,North,0,0.0,0.0,64,0.00,,SKC,0.00,VWS V12.07,2013-05-07 10:17:00,
2013-05-07 06:22:00,53.7,41.4,29.66,North,0,0.0,0.0,63,0.00,,SKC,0.00,VWS V12.07,2013-05-07 10:22:00,
2013-05-07 06:27:00,53.7,41.8,29.66,North,0,0.0,0.0,64,0.00,,SKC,0.00,VWS V12.07,2013-05-07 10:27:00,
2013-05-07 06:32:00,53.4,41.5,29.66,North,0,0.0,0.0,64,0.00,,SKC,0.00,VWS V12.07,2013-05-07 10:32:00,
2013-05-07 06:37:00,53.4,41.5,29.67,North,0,0.0,0.0,64,0.00,,SKC,0.00,VWS V12.07,2013-05-07 10:37:00,
2013-05-07 06:42:00,53.4,41.9,29.67,North,0,0.0,0.0,65,0.00,,SKC,0.00,VWS V12.07,2013-05-07 10:42:00,
2013-05-07 06:47:00,53.4,42.3,29.67,North,0,0.0,0.0,66,0.00,,SKC,0.00,VWS V12.07,2013-05-07 10:47:00,
2013-05-07 06:52:00,53.4,42.3,29.67,North,0,0.0,0.0,66,0.00,,SKC,0.00,VWS V12.07,2013-05-07 10:52:00,
2013-05-07 06:57:00,53.4,42.3,29.67,North,0,0.0,0.0,66,0.00,,SKC,0.00,VWS V12.07,2013-05-07 10:57:00,
2013-05-07 07:02:00,53.6,42.1,29.67,North,0,0.0,0.0,65,0.00,,SKC,0.00,VWS V12.07,2013-05-07 11:02:00,
2013-05-07 07:07:00,53.7,42.2,29.67,North,0,0.0,0.0,65,0.00,,SKC,0.00,VWS V12.07,2013-05-07 11:07:00,
2013-05-07 07:12:00,53.9,42.8,29.67,North,0,0.0,0.0,66,0.00,,SKC,0.00,VWS V12.07,2013-05-07 11:12:00,
2013-05-07 07:17:00,54.1,42.6,29.68,North,0,0.0,0.0,65,0.00,,SKC,0.00,VWS V12.07,2013-05-07 11:17:00,
2013-05-07 07:23:00,54.3,42.8,29.67,North,0,0.0,0.0,65,0.00,,SKC,0.00,VWS V12.07,2013-05-07 11:23:00,
2013-05-07 07:28:00,54.6,42.7,29.67,North,0,0.0,0.0,64,0.00,,SKC,0.00,VWS V12.07,2013-05-07 11:28:00,
2013-05-07 07:33:00,55.0,43.1,29.68,North,0,0.0,0.0,64,0.00,,SKC,0.00,VWS V12.07,2013-05-07 11:33:00,
2013-05-07 07:38:00,55.4,43.4,29.67,North,0,0.0,0.0,64,0.00,,SKC,0.00,VWS V12.07,2013-05-07 11:38:00,
2013-05-07 07:43:00,55.9,43.5,29.68,North,0,0.0,0.0,63,0.00,,SKC,0.00,VWS V12.07,2013-05-07 11:43:00,
2013-05-07 07:48:00,56.1,43.7,29.68,North,0,0.0,0.0,63,0.00,,SKC,0.00,VWS V12.07,2013-05-07 11:48:00,
2013-05-07 07:53:00,56.6,43.8,29.68,North,0,0.0,0.0,62,0.00,,SKC,0.00,VWS V12.07,2013-05-07 11:53:00,
2013-05-07 07:58:00,57.0,44.1,29.68,North,0,0.0,0.0,62,0.00,,SKC,0.00,VWS V12.07,2013-05-07 11:58:00,
2013-05-07 08:03:00,57.3,44.0,29.69,North,0,0.0,0.0,61,0.00,,SKC,0.00,VWS V12.07,2013-05-07 12:03:00,
2013-05-07 08:08:00,57.7,43.5,29.69,North,0,0.0,0.0,59,0.00,,SKC,0.00,VWS V12.07,2013-05-07 12:08:00,
2013-05-07 08:13:00,57.9,43.2,29.69,North,0,0.0,0.0,58,0.00,,SKC,0.00,VWS V12.07,2013-05-07 12:13:00,
2013-05-07 08:18:00,58.1,43.4,29.69,North,0,0.0,0.0,58,0.00,,SKC,0.00,VWS V12.07,2013-05-07 12:18:00,
2013-05-07 08:23:00,58.8,44.1,29.69,North,0,0.0,0.0,58,0.00,,SKC,0.00,VWS V12.07,2013-05-07 12:23:00,
2013-05-07 08:28:00,58.8,44.1,29.69,North,0,0.0,0.0,58,0.00,,SKC,0.00,VWS V12.07,2013-05-07 12:28:00,
2013-05-07 08:33:00,59.5,44.7,29.69,North,0,0.0,0.0,58,0.00,,SKC,0.00,VWS V12.07,2013-05-07 12:33:00,
2013-05-07 08:38:00,60.0,45.2,29.69,North,0,0.0,0.0,58,0.00,,SKC,0.00,VWS V12.07,2013-05-07 12:38:00,
2013-05-07 08:43:00,60.8,45.5,29.69,North,0,0.0,0.0,57,0.00,,SKC,0.00,VWS V12.07,2013-05-07 12:43:00,
2013-05-07 08:48:00,61.3,46.0,29.69,North,0,0.0,0.0,57,0.00,,SKC,0.00,VWS V12.07,2013-05-07 12:48:00,
2013-05-07 08:53:00,61.8,46.4,29.69,North,0,0.0,0.0,57,0.00,,SKC,0.00,VWS V12.07,2013-05-07 12:53:00,
2013-05-07 08:58:00,62.4,46.5,29.69,North,0,0.0,0.0,56,0.00,,SKC,0.00,VWS V12.07,2013-05-07 12:58:00,
2013-05-07 09:03:00,62.9,47.0,29.69,North,0,0.0,0.0,56,0.00,,SKC,0.00,VWS V12.07,2013-05-07 13:03:00,
2013-05-07 09:08:00,63.6,47.6,29.69,North,0,0.0,0.0,56,0.00,,SKC,0.00,VWS V12.07,2013-05-07 13:08:00,
2013-05-07 09:13:00,64.2,47.7,29.69,North,0,0.0,0.0,55,0.00,,SKC,0.00,VWS V12.07,2013-05-07 13:13:00,
2013-05-07 09:18:00,64.7,48.2,29.69,North,0,0.0,0.0,55,0.00,,SKC,0.00,VWS V12.07,2013-05-07 13:18:00,
2013-05-07 09:23:00,65.6,49.0,29.69,North,0,0.0,0.0,55,0.00,,SKC,0.00,VWS V12.07,2013-05-07 13:23:00,
2013-05-07 09:28:00,66.2,49.6,29.69,North,0,0.0,0.0,55,0.00,,SKC,0.00,VWS V12.07,2013-05-07 13:28:00,
2013-05-07 09:33:00,66.7,50.0,29.70,North,0,0.0,0.0,55,0.00,,SKC,0.00,VWS V12.07,2013-05-07 13:33:00,
2013-05-07 09:38:00,67.6,50.9,29.69,North,0,0.0,0.0,55,0.00,,SKC,0.00,VWS V12.07,2013-05-07 13:38:00,
2013-05-07 09:43:00,68.5,51.7,29.69,North,0,0.0,0.0,55,0.00,,SKC,0.00,VWS V12.07,2013-05-07 13:43:00,
2013-05-07 09:48:00,69.0,51.7,29.69,North,0,0.0,0.0,54,0.00,,SKC,0.00,VWS V12.07,2013-05-07 13:48:00,
2013-05-07 09:53:00,69.6,52.7,29.69,North,0,0.0,0.0,55,0.00,,SKC,0.00,VWS V12.07,2013-05-07 13:53:00,
2013-05-07 09:58:00,70.5,53.1,29.69,North,0,0.0,0.0,54,0.00,,SKC,0.00,VWS V12.07,2013-05-07 13:58:00,
2013-05-07 10:03:00,70.7,53.3,29.69,North,0,0.0,0.0,54,0.00,,SKC,0.00,VWS V12.07,2013-05-07 14:03:00,
2013-05-07 10:08:00,70.8,52.8,29.69,North,0,0.0,0.0,53,0.00,,SKC,0.00,VWS V12.07,2013-05-07 14:08:00,
2013-05-07 10:13:00,71.2,53.2,29.68,North,0,0.0,0.0,53,0.00,,SKC,0.00,VWS V12.07,2013-05-07 14:13:00,
2013-05-07 10:18:00,71.4,53.4,29.68,North,0,0.0,0.0,53,0.00,,SKC,0.00,VWS V12.07,2013-05-07 14:18:00,
2013-05-07 10:23:00,71.4,52.9,29.68,North,0,0.0,0.0,52,0.00,,SKC,0.00,VWS V12.07,2013-05-07 14:23:00,
2013-05-07 10:28:00,71.4,52.9,29.68,North,0,0.0,0.0,52,0.00,,SKC,0.00,VWS V12.07,2013-05-07 14:28:00,
2013-05-07 10:33:00,71.4,52.9,29.68,North,0,0.0,0.0,52,0.00,,SKC,0.00,VWS V12.07,2013-05-07 14:33:00,
2013-05-07 10:38:00,71.9,53.9,29.68,North,0,0.0,0.0,53,0.00,,SKC,0.00,VWS V12.07,2013-05-07 14:38:00,
2013-05-07 10:43:00,72.6,54.0,29.68,North,0,0.0,0.0,52,0.00,,SKC,0.00,VWS V12.07,2013-05-07 14:43:00,
2013-05-07 10:48:00,73.2,54.5,29.68,North,0,0.0,0.0,52,0.00,,SKC,0.00,VWS V12.07,2013-05-07 14:48:00,
2013-05-07 10:53:00,73.9,55.2,29.68,North,0,0.0,0.0,52,0.00,,SKC,0.00,VWS V12.07,2013-05-07 14:53:00,
2013-05-07 10:58:00,74.8,55.5,29.68,North,0,0.0,0.0,51,0.00,,SKC,0.00,VWS V12.07,2013-05-07 14:58:00,
2013-05-07 11:03:00,75.0,55.7,29.68,North,0,0.0,0.0,51,0.00,,SKC,0.00,VWS V12.07,2013-05-07 15:03:00,
2013-05-07 11:08:00,75.5,55.6,29.68,North,0,0.0,0.0,50,0.00,,SKC,0.00,VWS V12.07,2013-05-07 15:08:00,
2013-05-07 11:13:00,76.4,55.3,29.68,North,0,0.0,0.0,48,0.00,,SKC,0.00,VWS V12.07,2013-05-07 15:13:00,
2013-05-07 11:18:00,76.8,55.1,29.67,North,0,0.0,0.0,47,0.00,,SKC,0.00,VWS V12.07,2013-05-07 15:18:00,
2013-05-07 11:23:00,77.1,55.3,29.67,North,0,0.0,0.0,47,0.00,,SKC,0.00,VWS V12.07,2013-05-07 15:23:00,
2013-05-07 11:28:00,77.3,54.9,29.68,North,0,0.0,0.0,46,0.00,,SKC,0.00,VWS V12.07,2013-05-07 15:28:00,
2013-05-07 11:33:00,77.1,54.8,29.68,North,0,0.0,0.0,46,0.00,,SKC,0.00,VWS V12.07,2013-05-07 15:33:00,
2013-05-07 11:38:00,77.3,54.9,29.67,North,0,0.0,0.0,46,0.00,,SKC,0.00,VWS V12.07,2013-05-07 15:38:00,
2013-05-07 11:43:00,77.5,53.9,29.68,North,0,0.0,0.0,44,0.00,,SKC,0.00,VWS V12.07,2013-05-07 15:43:00,
2013-05-07 11:48:00,77.5,53.9,29.67,North,0,0.0,0.0,44,0.00,,SKC,0.00,VWS V12.07,2013-05-07 15:48:00,
2013-05-07 11:53:00,77.5,53.3,29.68,North,0,0.0,0.0,43,0.00,,SKC,0.00,VWS V12.07,2013-05-07 15:53:00,
2013-05-07 11:58:00,76.8,53.3,29.67,North,0,0.0,0.0,44,0.00,,SKC,0.00,VWS V12.07,2013-05-07 15:58:00,
2013-05-07 12:03:00,76.6,53.1,29.68,North,0,0.0,0.0,44,0.00,,SKC,0.00,VWS V12.07,2013-05-07 16:03:00,
2013-05-07 12:08:00,76.8,53.9,29.68,North,0,0.0,0.0,45,0.00,,SKC,0.00,VWS V12.07,2013-05-07 16:08:00,
2013-05-07 12:13:00,77.5,53.3,29.68,North,0,0.0,0.0,43,0.00,,SKC,0.00,VWS V12.07,2013-05-07 16:13:00,
2013-05-07 12:18:00,77.5,52.6,29.67,North,0,0.0,0.0,42,0.00,,SKC,0.00,VWS V12.07,2013-05-07 16:18:00,
2013-05-07 12:23:00,77.3,53.1,29.67,North,0,0.0,0.0,43,0.00,,SKC,0.00,VWS V12.07,2013-05-07 16:23:00,
2013-05-07 12:28:00,77.1,52.9,29.67,North,0,0.0,0.0,43,0.00,,SKC,0.00,VWS V12.07,2013-05-07 16:28:00,
2013-05-07 12:33:00,76.8,52.6,29.67,North,0,0.0,0.0,43,0.00,,SKC,0.00,VWS V12.07,2013-05-07 16:33:00,
2013-05-07 12:38:00,76.6,52.5,29.68,North,0,0.0,0.0,43,0.00,,SKC,0.00,VWS V12.07,2013-05-07 16:38:00,
2013-05-07 12:43:00,76.1,52.6,29.68,North,0,0.0,0.0,44,0.00,,SKC,0.00,VWS V12.07,2013-05-07 16:43:00,
2013-05-07 12:48:00,75.9,51.8,29.67,North,0,0.0,0.0,43,0.00,,SKC,0.00,VWS V12.07,2013-05-07 16:48:00,
2013-05-07 12:53:00,75.7,52.3,29.67,North,0,0.0,0.0,44,0.00,,SKC,0.00,VWS V12.07,2013-05-07 16:53:00,
2013-05-07 12:58:00,75.3,51.9,29.67,North,0,0.0,0.0,44,0.00,,SKC,0.00,VWS V12.07,2013-05-07 16:58:00,
2013-05-07 13:03:00,75.2,51.8,29.67,North,0,0.0,0.0,44,0.00,,SKC,0.00,VWS V12.07,2013-05-07 17:03:00,
2013-05-07 13:08:00,75.0,51.6,29.67,North,0,0.0,0.0,44,0.00,,SKC,0.00,VWS V12.07,2013-05-07 17:08:00,
2013-05-07 13:13:00,75.3,51.9,29.67,North,0,0.0,0.0,44,0.00,,SKC,0.00,VWS V12.07,2013-05-07 17:13:00,
2013-05-07 13:18:00,75.7,52.9,29.67,North,0,0.0,0.0,45,0.00,,SKC,0.00,VWS V12.07,2013-05-07 17:18:00,
2013-05-07 13:23:00,76.1,52.6,29.67,North,0,0.0,0.0,44,0.00,,SKC,0.00,VWS V12.07,2013-05-07 17:23:00,
2013-05-07 13:28:00,76.1,52.6,29.67,North,0,0.0,0.0,44,0.00,,SKC,0.00,VWS V12.07,2013-05-07 17:28:00,
2013-05-07 13:33:00,76.1,52.6,29.67,North,0,0.0,0.0,44,0.00,,SKC,0.00,VWS V12.07,2013-05-07 17:33:00,
2013-05-07 13:38:00,75.7,52.3,29.67,North,0,0.0,0.0,44,0.00,,SKC,0.00,VWS V12.07,2013-05-07 17:38:00,
2013-05-07 13:43:00,75.3,51.9,29.67,North,0,0.0,0.0,44,0.00,,SKC,0.00,VWS V12.07,2013-05-07 17:43:00,
2013-05-07 13:48:00,75.0,51.6,29.67,North,0,0.0,0.0,44,0.00,,SKC,0.00,VWS V12.07,2013-05-07 17:48:00,
2013-05-07 13:53:00,74.8,51.5,29.67,North,0,0.0,0.0,44,0.00,,SKC,0.00,VWS V12.07,2013-05-07 17:53:00,
2013-05-07 13:58:00,74.4,51.7,29.66,North,0,0.0,0.0,45,0.00,,SKC,0.00,VWS V12.07,2013-05-07 17:58:00,
2013-05-07 14:03:00,74.3,51.6,29.67,North,0,0.0,0.0,45,0.00,,SKC,0.00,VWS V12.07,2013-05-07 18:03:00,
2013-05-07 14:08:00,73.7,51.1,29.67,North,0,0.0,0.0,45,0.00,,SKC,0.00,VWS V12.07,2013-05-07 18:08:00,
2013-05-07 14:13:00,73.5,50.9,29.67,North,0,0.0,0.0,45,0.00,,SKC,0.00,VWS V12.07,2013-05-07 18:13:00,
2013-05-07 14:18:00,73.7,51.1,29.66,North,0,0.0,0.0,45,0.00,,SKC,0.00,VWS V12.07,2013-05-07 18:18:00,
2013-05-07 14:23:00,73.5,51.5,29.67,North,0,0.0,0.0,46,0.00,,SKC,0.00,VWS V12.07,2013-05-07 18:23:00,
2013-05-07 14:28:00,73.7,51.7,29.66,North,0,0.0,0.0,46,0.00,,SKC,0.00,VWS V12.07,2013-05-07 18:28:00,
2013-05-07 14:33:00,73.9,51.8,29.67,North,0,0.0,0.0,46,0.00,,SKC,0.00,VWS V12.07,2013-05-07 18:33:00,
2013-05-07 14:38:00,74.4,52.3,29.67,North,0,0.0,0.0,46,0.00,,SKC,0.00,VWS V12.07,2013-05-07 18:38:00,
2013-05-07 14:43:00,74.8,52.7,29.67,North,0,0.0,0.0,46,0.00,,SKC,0.00,VWS V12.07,2013-05-07 18:43:00,
2013-05-07 14:48:00,75.0,52.8,29.67,North,0,0.0,0.0,46,0.00,,SKC,0.00,VWS V12.07,2013-05-07 18:48:00,
2013-05-07 14:53:00,74.8,52.7,29.67,North,0,0.0,0.0,46,0.00,,SKC,0.00,VWS V12.07,2013-05-07 18:53:00,
2013-05-07 14:58:00,74.6,52.5,29.67,North,0,0.0,0.0,46,0.00,,SKC,0.00,VWS V12.07,2013-05-07 18:58:00,
2013-05-07 15:03:00,74.4,52.3,29.67,North,0,0.0,0.0,46,0.00,,SKC,0.00,VWS V12.07,2013-05-07 19:03:00,
2013-05-07 15:08:00,74.8,52.1,29.66,North,0,0.0,0.0,45,0.00,,SKC,0.00,VWS V12.07,2013-05-07 19:08:00,
2013-05-07 15:13:00,74.8,52.7,29.66,North,0,0.0,0.0,46,0.00,,SKC,0.00,VWS V12.07,2013-05-07 19:13:00,
2013-05-07 15:18:00,74.8,52.7,29.66,North,0,0.0,0.0,46,0.00,,SKC,0.00,VWS V12.07,2013-05-07 19:18:00,
2013-05-07 15:23:00,74.8,52.7,29.66,North,0,0.0,0.0,46,0.00,,SKC,0.00,VWS V12.07,2013-05-07 19:23:00,
2013-05-07 15:28:00,75.0,52.2,29.66,North,0,0.0,0.0,45,0.00,,SKC,0.00,VWS V12.07,2013-05-07 19:28:00,
2013-05-07 15:33:00,75.0,52.2,29.65,North,0,0.0,0.0,45,0.00,,SKC,0.00,VWS V12.07,2013-05-07 19:33:00,
2013-05-07 15:38:00,75.0,51.6,29.65,North,0,0.0,0.0,44,0.00,,SKC,0.00,VWS V12.07,2013-05-07 19:38:00,
2013-05-07 15:43:00,75.0,51.6,29.65,North,0,0.0,0.0,44,0.00,,SKC,0.00,VWS V12.07,2013-05-07 19:43:00,
2013-05-07 15:48:00,74.8,51.5,29.65,North,0,0.0,0.0,44,0.00,,SKC,0.00,VWS V12.07,2013-05-07 19:48:00,
2013-05-07 15:54:00,74.4,51.1,29.65,North,0,0.0,0.0,44,0.00,,SKC,0.00,VWS V12.07,2013-05-07 19:54:00,
2013-05-07 15:59:00,74.1,50.8,29.65,North,0,0.0,0.0,44,0.00,,SKC,0.00,VWS V12.07,2013-05-07 19:59:00,
2013-05-07 16:04:00,73.9,51.2,29.64,North,0,0.0,0.0,45,0.00,,SKC,0.00,VWS V12.07,2013-05-07 20:04:00,
2013-05-07 16:09:00,73.9,51.2,29.64,North,0,0.0,0.0,45,0.00,,SKC,0.00,VWS V12.07,2013-05-07 20:09:00,
2013-05-07 16:14:00,73.9,51.2,29.64,North,0,0.0,0.0,45,0.00,,SKC,0.00,VWS V12.07,2013-05-07 20:14:00,
2013-05-07 16:19:00,73.9,51.2,29.64,North,0,0.0,0.0,45,0.00,,SKC,0.00,VWS V12.07,2013-05-07 20:19:00,
2013-05-07 16:24:00,73.9,51.2,29.64,North,0,0.0,0.0,45,0.00,,SKC,0.00,VWS V12.07,2013-05-07 20:24:00,
2013-05-07 16:29:00,73.9,50.6,29.64,North,0,0.0,0.0,44,0.00,,SKC,0.00,VWS V12.07,2013-05-07 20:29:00,
2013-05-07 16:34:00,74.1,50.8,29.64,North,0,0.0,0.0,44,0.00,,SKC,0.00,VWS V12.07,2013-05-07 20:34:00,
2013-05-07 16:39:00,74.1,50.8,29.64,North,0,0.0,0.0,44,0.00,,SKC,0.00,VWS V12.07,2013-05-07 20:39:00,
2013-05-07 16:44:00,73.9,50.6,29.64,North,0,0.0,0.0,44,0.00,,SKC,0.00,VWS V12.07,2013-05-07 20:44:00,
2013-05-07 16:49:00,73.9,50.6,29.64,North,0,0.0,0.0,44,0.00,,SKC,0.00,VWS V12.07,2013-05-07 20:49:00,
2013-05-07 16:54:00,73.9,50.0,29.63,North,0,0.0,0.0,43,0.00,,SKC,0.00,VWS V12.07,2013-05-07 20:54:00,
2013-05-07 16:59:00,73.9,50.0,29.64,North,0,0.0,0.0,43,0.00,,SKC,0.00,VWS V12.07,2013-05-07 20:59:00,
2013-05-07 17:04:00,74.1,50.8,29.63,North,0,0.0,0.0,44,0.00,,SKC,0.00,VWS V12.07,2013-05-07 21:04:00,
2013-05-07 17:09:00,74.3,50.4,29.63,North,0,0.0,0.0,43,0.00,,SKC,0.00,VWS V12.07,2013-05-07 21:09:00,
2013-05-07 17:14:00,74.1,50.2,29.63,North,0,0.0,0.0,43,0.00,,SKC,0.00,VWS V12.07,2013-05-07 21:14:00,
2013-05-07 17:19:00,73.9,50.0,29.63,North,0,0.0,0.0,43,0.00,,SKC,0.00,VWS V12.07,2013-05-07 21:19:00,
2013-05-07 17:24:00,73.9,50.0,29.63,North,0,0.0,0.0,43,0.00,,SKC,0.00,VWS V12.07,2013-05-07 21:24:00,
2013-05-07 17:29:00,74.1,50.2,29.63,North,0,0.0,0.0,43,0.00,,SKC,0.00,VWS V12.07,2013-05-07 21:29:00,
2013-05-07 17:34:00,74.1,50.2,29.63,North,0,0.0,0.0,43,0.00,,SKC,0.00,VWS V12.07,2013-05-07 21:34:00,
2013-05-07 17:39:00,74.1,50.2,29.63,North,0,0.0,0.0,43,0.00,,SKC,0.00,VWS V12.07,2013-05-07 21:39:00,
2013-05-07 17:44:00,74.1,49.6,29.63,North,0,0.0,0.0,42,0.00,,SKC,0.00,VWS V12.07,2013-05-07 21:44:00,
2013-05-07 17:49:00,74.1,50.2,29.63,North,0,0.0,0.0,43,0.00,,SKC,0.00,VWS V12.07,2013-05-07 21:49:00,
2013-05-07 17:54:00,73.9,50.0,29.63,North,0,0.0,0.0,43,0.00,,SKC,0.00,VWS V12.07,2013-05-07 21:54:00,
2013-05-07 17:59:00,73.9,50.0,29.63,North,0,0.0,0.0,43,0.00,,SKC,0.00,VWS V12.07,2013-05-07 21:59:00,
2013-05-07 18:04:00,73.9,50.0,29.63,North,0,0.0,0.0,43,0.00,,SKC,0.00,VWS V12.07,2013-05-07 22:04:00,
2013-05-07 18:09:00,73.9,50.0,29.63,North,0,0.0,0.0,43,0.00,,SKC,0.00,VWS V12.07,2013-05-07 22:09:00,
2013-05-07 18:14:00,73.9,50.0,29.63,North,0,0.0,0.0,43,0.00,,SKC,0.00,VWS V12.07,2013-05-07 22:14:00,
2013-05-07 18:19:00,73.9,50.0,29.63,North,0,0.0,0.0,43,0.00,,SKC,0.00,VWS V12.07,2013-05-07 22:19:00,
2013-05-07 18:24:00,73.9,49.4,29.63,North,0,0.0,0.0,42,0.00,,SKC,0.00,VWS V12.07,2013-05-07 22:24:00,
2013-05-07 18:29:00,73.7,49.2,29.63,North,0,0.0,0.0,42,0.00,,SKC,0.00,VWS V12.07,2013-05-07 22:29:00,
2013-05-07 18:34:00,73.5,48.4,29.63,North,0,0.0,0.0,41,0.00,,SKC,0.00,VWS V12.07,2013-05-07 22:34:00,
2013-05-07 18:39:00,73.2,48.1,29.63,North,0,0.0,0.0,41,0.00,,SKC,0.00,VWS V12.07,2013-05-07 22:39:00,
2013-05-07 18:44:00,72.6,48.2,29.63,North,0,0.0,0.0,42,0.00,,SKC,0.00,VWS V12.07,2013-05-07 22:44:00,
2013-05-07 18:49:00,72.5,48.1,29.64,North,0,0.0,0.0,42,0.00,,SKC,0.00,VWS V12.07,2013-05-07 22:49:00,
2013-05-07 18:54:00,72.3,48.0,29.63,North,0,0.0,0.0,42,0.00,,SKC,0.00,VWS V12.07,2013-05-07 22:54:00,
2013-05-07 18:59:00,72.1,48.4,29.63,North,0,0.0,0.0,43,0.00,,SKC,0.00,VWS V12.07,2013-05-07 22:59:00,
2013-05-07 19:09:00,72.1,48.4,29.63,North,0,0.0,0.0,43,0.00,,SKC,0.00,VWS V12.07,2013-05-07 23:09:00,
2013-05-07 19:14:00,71.9,48.8,29.63,North,0,0.0,0.0,44,0.00,,SKC,0.00,VWS V12.07,2013-05-07 23:14:00,
2013-05-07 19:19:00,71.9,48.8,29.63,North,0,0.0,0.0,44,0.00,,SKC,0.00,VWS V12.07,2013-05-07 23:19:00,
2013-05-07 19:24:00,71.7,48.7,29.63,North,0,0.0,0.0,44,0.00,,SKC,0.00,VWS V12.07,2013-05-07 23:24:00,
2013-05-07 19:29:00,71.6,48.6,29.63,North,0,0.0,0.0,44,0.00,,SKC,0.00,VWS V12.07,2013-05-07 23:29:00,
2013-05-07 19:35:00,71.6,48.6,29.63,North,0,0.0,0.0,44,0.00,,SKC,0.00,VWS V12.07,2013-05-07 23:35:00,
2013-05-07 19:40:00,71.6,48.6,29.63,North,0,0.0,0.0,44,0.00,,SKC,0.00,VWS V12.07,2013-05-07 23:40:00,
2013-05-07 19:45:00,71.2,48.8,29.63,North,0,0.0,0.0,45,0.00,,SKC,0.00,VWS V12.07,2013-05-07 23:45:00,
2013-05-07 19:50:00,70.8,48.4,29.63,North,0,0.0,0.0,45,0.00,,SKC,0.00,VWS V12.07,2013-05-07 23:50:00,
2013-05-07 19:55:00,70.7,48.3,29.63,North,0,0.0,0.0,45,0.00,,SKC,0.00,VWS V12.07,2013-05-07 23:55:00,
2013-05-07 20:00:00,70.3,48.6,29.64,North,0,0.0,0.0,46,0.00,,SKC,0.00,VWS V12.07,2013-05-08 00:00:00,
2013-05-07 20:05:00,70.3,48.6,29.64,North,0,0.0,0.0,46,0.00,,SKC,0.00,VWS V12.07,2013-05-08 00:05:00,
2013-05-07 20:10:00,69.9,48.8,29.64,North,0,0.0,0.0,47,0.00,,SKC,0.00,VWS V12.07,2013-05-08 00:10:00,
2013-05-07 20:15:00,69.6,48.5,29.64,North,0,0.0,0.0,47,0.00,,SKC,0.00,VWS V12.07,2013-05-08 00:15:00,
2013-05-07 20:20:00,69.6,48.5,29.64,North,0,0.0,0.0,47,0.00,,SKC,0.00,VWS V12.07,2013-05-08 00:20:00,
2013-05-07 20:25:00,69.4,48.3,29.64,North,0,0.0,0.0,47,0.00,,SKC,0.00,VWS V12.07,2013-05-08 00:25:00,
2013-05-07 20:30:00,69.2,48.7,29.64,North,0,0.0,0.0,48,0.00,,SKC,0.00,VWS V12.07,2013-05-08 00:30:00,
2013-05-07 20:35:00,69.0,48.5,29.64,North,0,0.0,0.0,48,0.00,,SKC,0.00,VWS V12.07,2013-05-08 00:35:00,
2013-05-07 20:40:00,68.7,48.2,29.64,North,0,0.0,0.0,48,0.00,,SKC,0.00,VWS V12.07,2013-05-08 00:40:00,
2013-05-07 20:45:00,68.5,48.1,29.64,North,0,0.0,0.0,48,0.00,,SKC,0.00,VWS V12.07,2013-05-08 00:45:00,
2013-05-07 20:50:00,68.3,47.9,29.65,North,0,0.0,0.0,48,0.00,,SKC,0.00,VWS V12.07,2013-05-08 00:50:00,
2013-05-07 20:55:00,68.1,47.7,29.65,North,0,0.0,0.0,48,0.00,,SKC,0.00,VWS V12.07,2013-05-08 00:55:00,
2013-05-07 21:00:00,67.8,48.0,29.65,North,0,0.0,0.0,49,0.00,,SKC,0.00,VWS V12.07,2013-05-08 01:00:00,
2013-05-07 21:05:00,67.8,48.0,29.65,North,0,0.0,0.0,49,0.00,,SKC,0.00,VWS V12.07,2013-05-08 01:05:00,
2013-05-07 21:10:00,67.6,47.8,29.66,North,0,0.0,0.0,49,0.00,,SKC,0.00,VWS V12.07,2013-05-08 01:10:00,
2013-05-07 21:15:00,67.2,48.0,29.66,North,0,0.0,0.0,50,0.00,,SKC,0.00,VWS V12.07,2013-05-08 01:15:00,
2013-05-07 21:20:00,67.1,47.9,29.66,North,0,0.0,0.0,50,0.00,,SKC,0.00,VWS V12.07,2013-05-08 01:20:00,
2013-05-07 21:25:00,66.9,47.7,29.66,North,0,0.0,0.0,50,0.00,,SKC,0.00,VWS V12.07,2013-05-08 01:25:00,
2013-05-07 21:30:00,66.5,47.8,29.66,North,0,0.0,0.0,51,0.00,,SKC,0.00,VWS V12.07,2013-05-08 01:30:00,
2013-05-07 21:35:00,66.3,47.7,29.66,North,0,0.0,0.0,51,0.00,,SKC,0.00,VWS V12.07,2013-05-08 01:35:00,
2013-05-07 21:40:00,66.0,47.4,29.67,North,0,0.0,0.0,51,0.00,,SKC,0.00,VWS V12.07,2013-05-08 01:40:00,
2013-05-07 21:45:00,66.0,47.4,29.66,North,0,0.0,0.0,51,0.00,,SKC,0.00,VWS V12.07,2013-05-08 01:45:00,
2013-05-07 21:50:00,66.0,47.4,29.67,North,0,0.0,0.0,51,0.00,,SKC,0.00,VWS V12.07,2013-05-08 01:50:00,
2013-05-07 21:55:00,65.6,47.0,29.67,North,0,0.0,0.0,51,0.00,,SKC,0.00,VWS V12.07,2013-05-08 01:55:00,
2013-05-07 22:00:00,65.4,47.3,29.67,North,0,0.0,0.0,52,0.00,,SKC,0.00,VWS V12.07,2013-05-08 02:00:00,
2013-05-07 22:05:00,65.1,47.1,29.67,North,0,0.0,0.0,52,0.00,,SKC,0.00,VWS V12.07,2013-05-08 02:05:00,
2013-05-07 22:10:00,64.9,47.4,29.67,North,0,0.0,0.0,53,0.00,,SKC,0.00,VWS V12.07,2013-05-08 02:10:00,
2013-05-07 22:15:00,64.7,47.2,29.67,North,0,0.0,0.0,53,0.00,,SKC,0.00,VWS V12.07,2013-05-08 02:15:00,
2013-05-07 22:20:00,64.5,47.0,29.67,North,0,0.0,0.0,53,0.00,,SKC,0.00,VWS V12.07,2013-05-08 02:20:00,
2013-05-07 22:25:00,64.2,47.2,29.67,North,0,0.0,0.0,54,0.00,,SKC,0.00,VWS V12.07,2013-05-08 02:25:00,
2013-05-07 22:30:00,64.0,47.0,29.68,North,0,0.0,0.0,54,0.00,,SKC,0.00,VWS V12.07,2013-05-08 02:30:00,
2013-05-07 22:35:00,64.0,47.0,29.68,North,0,0.0,0.0,54,0.00,,SKC,0.00,VWS V12.07,2013-05-08 02:35:00,
2013-05-07 22:40:00,63.6,47.2,29.68,North,0,0.0,0.0,55,0.00,,SKC,0.00,VWS V12.07,2013-05-08 02:40:00,
2013-05-07 22:45:00,63.6,47.2,29.68,North,0,0.0,0.0,55,0.00,,SKC,0.00,VWS V12.07,2013-05-08 02:45:00,
2013-05-07 22:50:00,63.5,47.1,29.68,North,0,0.0,0.0,55,0.00,,SKC,0.00,VWS V12.07,2013-05-08 02:50:00,
2013-05-07 22:55:00,63.5,47.5,29.67,North,0,0.0,0.0,56,0.00,,SKC,0.00,VWS V12.07,2013-05-08 02:55:00,
2013-05-07 23:00:00,63.5,47.5,29.67,North,0,0.0,0.0,56,0.00,,SKC,0.00,VWS V12.07,2013-05-08 03:00:00,
2013-05-07 23:05:00,63.3,47.3,29.67,North,0,0.0,0.0,56,0.00,,SKC,0.00,VWS V12.07,2013-05-08 03:05:00,
2013-05-07 23:10:00,63.3,47.8,29.67,North,0,0.0,0.0,57,0.00,,SKC,0.00,VWS V12.07,2013-05-08 03:10:00,
2013-05-07 23:15:00,62.9,47.9,29.68,North,0,0.0,0.0,58,0.00,,SKC,0.00,VWS V12.07,2013-05-08 03:15:00,
2013-05-07 23:20:00,62.7,48.2,29.67,North,0,0.0,0.0,59,0.00,,SKC,0.00,VWS V12.07,2013-05-08 03:20:00,
2013-05-07 23:25:00,62.4,48.3,29.67,North,0,0.0,0.0,60,0.00,,SKC,0.00,VWS V12.07,2013-05-08 03:25:00,
2013-05-07 23:30:00,62.2,48.2,29.67,North,0,0.0,0.0,60,0.00,,SKC,0.00,VWS V12.07,2013-05-08 03:30:00,
2013-05-07 23:35:00,61.8,47.8,29.67,North,0,0.0,0.0,60,0.00,,SKC,0.00,VWS V12.07,2013-05-08 03:35:00,
2013-05-07 23:40:00,61.7,47.7,29.67,North,0,0.0,0.0,60,0.00,,SKC,0.00,VWS V12.07,2013-05-08 03:40:00,
2013-05-07 23:45:00,61.5,47.9,29.67,North,0,0.0,0.0,61,0.00,,SKC,0.00,VWS V12.07,2013-05-08 03:45:00,
2013-05-07 23:50:00,61.3,47.8,29.67,North,0,0.0,0.0,61,0.00,,SKC,0.00,VWS V12.07,2013-05-08 03:50:00,
2013-05-07 23:55:00,60.9,47.4,29.67,North,0,0.0,0.0,61,0.00,,SKC,0.00,VWS V12.07,2013-05-08 03:55:00,